Temperature
20 19 19 19 18 18 18 17 17 17 16 16 16 16 16 16 15 15 15 15 15 15 15 15 15 15 15 15 15 15 15 15 15 15 14 14 14 14 14 14 14 14 14
19 19 19 18 18 18 17 17 17 16 16 16 16 16 15 15 15 15 15 15 15 15 15 15 15 15 15 15 15 15 15 14 14 14 14 14 14 14 13 14 14 14 14
19 19 19 18 18 18 18 17 17 16 16 16 16 15 15 15 15 15 15 15 15 15 15 15 15 15 15 15 15 14 15 14 14 14 14 14 13 13 13 13 13 13 13
19 19 19 18 18 18 18 17 17 16 16 16 16 16 15 15 15 15 15 15 15 14 14 14 14 14 14 14 14 14 14 14 14 14 14 14 14 13 13 13 13 13 13
19 19 19 19 18 18 17 17 17 16 16 16 16 16 15 15 15 15 15 15 14 14 14 14 14 14 14 14 14 14 14 14 14 14 14 14 14 14 13 13 13 13 13
19 19 19 18 18 18 17 17 17 16 16 16 16 16 15 15 15 15 15 15 15 14 14 14 14 14 14 14 14 14 14 14 14 14 14 14 14 14 14 13 13 13 13
19 19 19 18 18 18 17 17 17 16 16 16 16 16 15 15 15 15 15 15 15 14 14 14 14 14 14 14 14 14 14 14 14 14 14 14 14 14 14 14 13 13 12
19 19 19 19 18 18 17 17 17 16 16 16 16 16 15 15 15 15 15 15 15 14 14 14 14 14 14 14 14 14 14 14 14 14 14 14 14 14 14 14 13 13 12
19 19 19 19 18 18 17 17 17 16 16 16 16 15 15 15 15 15 15 15 14 14 14 14 14 14 14 14 14 14 14 14 14 14 14 14 14 14 14 13 13 13 13
19 19 19 18 18 18 17 17 17 16 16 16 16 16 15 15 15 15 15 15 14 14 14 14 14 14 14 14 14 14 14 14 14 14 13 14 14 13 13 13 13 13 13
19 19 19 18 18 18 17 17 17 16 16 16 16 16 15 15 15 15 15 14 14 14 14 14 14 14 14 14 14 14 14 14 13 13 13 13 13 13 13 13 13 13 13
19 19 18 18 18 17 17 17 17 16 16 16 16 15 15 15 15 15 14 14 14 14 14 14 14 14 14 13 13 13 13 13 13 13 13 13 13 13 13 13 13 13 12
19 18 18 18 18 17 17 17 16 16 16 16 15 15 15 15 15 15 14 14 14 14 14 14 14 14 13 13 13 13 13 13 13 13 13 13 13 13 13 12 12 12 12
18 18 18 18 17 17 17 16 16 16 16 15 15 15 15 15 15 14 14 14 14 14 14 14 14 14 13 13 13 13 13 13 13 13 13 13 12 12 12 12 12 12 12
18 18 18 17 17 17 16 16 16 16 15 15 15 15 15 14 14 14 14 14 14 14 14 14 14 14 13 13 13 13 13 13 13 13 13 12 12 12 12 12 12 12 12
17 17 17 17 17 17 16 16 16 16 15 15 15 15 15 14 14 14 14 14 14 14 14 14 14 13 13 13 13 13 13 13 13 13 12 12 12 12 12 12 12 12 12
17 17 17 17 17 16 16 16 16 15 15 15 15 15 15 14 14 14 14 14 14 14 13 13 13 13 13 13 13 13 13 13 12 12 12 12 12 12 12 12 12 12 11
17 17 17 17 16 16 16 16 15 15 15 15 14 14 14 14 14 14 14 13 13 13 13 13 13 13 13 13 13 13 13 12 12 12 12 12 12 12 12 11 12 12 11
17 17 17 16 16 16 15 15 15 15 15 14 14 14 14 14 14 13 13 13 13 13 13 13 13 13 13 13 12 12 12 12 12 12 12 12 12 12 11 11 11 11 11
17 17 16 16 16 15 15 15 15 14 14 14 14 14 14 13 13 13 13 13 13 13 13 13 13 13 13 13 12 12 12 12 12 12 12 12 12 12 11 11 11 11 11
16 16 16 16 15 15 15 14 14 14 14 14 14 13 13 13 13 13 13 13 12 13 13 13 13 12 12 12 12 12 12 12 12 12 12 11 11 11 11 11 11 11 10
16 16 15 15 15 14 14 14 14 13 13 13 13 13 13 13 12 12 12 12 12 12 12 12 12 12 12 12 12 12 11 11 11 11 11 11 11 11 10 10 10 10 10
15 15 15 14 14 14 14 14 13 13 13 13 13 13 13 12 12 12 12 12 12 12 12 12 12 12 12 11 11 11 11 11 11 11 11 10 10 10 10 10 10 10 10
15 14 14 14 14 13 13 13 13 13 13 13 13 12 12 12 12 12 12 12 12 11 11 11 11 11 11 11 11 11 11 11 10 10 10 10 10 10 10 9 9 9 9
14 14 14 13 13 13 13 13 12 12 12 12 12 12 12 12 12 12 11 11 11 11 11 11 10 10 10 10 10 10 10 10 10 10 10 10 9 9 9 9 9 9 9
14 14 13 13 13 13 13 12 12 12 12 12 12 12 11 11 11 11 11 11 10 10 10 10 10 10 10 10 10 10 10 9 9 9 9 9 9 9 9 9 9 9 8
Wind_Speed
6 6 7 8 7 6 6 6 5 4 4 3 3 2 1 1 2 3 5 5 5 6 6 4 4 4 4 3 4 3 4 3 3 4 4 4 5 4 3 3 3 4 4
5 5 6 7 7 6 6 6 6 5 4 3 3 2 2 1 1 2 3 4 5 5 5 4 3 3 3 4 3 3 2 1 2 3 3 2 4 4 4 3 2 2 4
10 8 7 6 7 7 7 7 6 5 4 4 3 3 3 3 2 2 1 1 2 4 5 5 4 3 3 3 3 3 3 2 0 1 3 3 1 1 3 3 3 3 3
9 9 8 7 8 7 7 7 6 5 4 4 5 5 3 2 2 2 1 1 1 3 5 5 4 3 3 3 3 2 2 3 1 0 1 2 4 2 1 3 3 3 3
10 10 10 9 8 7 7 6 6 5 4 4 5 5 3 2 1 1 1 0 0 1 3 4 3 3 2 2 2 2 2 2 2 1 1 2 2 2 2 1 2 3 2
9 8 8 8 6 6 6 6 6 4 4 5 5 6 5 4 3 2 2 1 1 0 1 3 3 3 2 2 2 2 3 2 1 1 1 2 2 2 2 2 1 1 2
9 9 8 8 7 7 6 6 6 4 4 4 5 5 5 5 5 4 4 2 1 1 1 2 2 2 2 3 2 2 2 2 2 2 1 2 2 2 2 3 1 0 1
9 10 10 10 8 8 7 7 6 5 4 4 4 4 4 4 4 4 4 4 3 3 3 3 3 3 3 3 2 1 1 2 2 2 2 2 1 2 3 3 3 1 1
9 10 9 9 8 8 8 8 8 6 5 5 4 4 4 4 4 4 4 3 3 3 3 4 3 3 3 3 3 1 1 2 2 2 2 2 1 2 2 3 4 3 2
8 8 8 8 8 7 6 6 7 7 5 5 4 4 4 4 4 3 4 4 4 3 4 3 3 3 2 3 3 2 2 2 1 1 2 1 1 1 2 2 2 2 3
9 9 8 7 7 6 6 6 6 5 5 5 4 4 4 4 4 4 5 5 4 4 4 4 4 3 3 2 3 2 2 2 1 1 2 1 1 2 1 1 2 2 3
7 7 7 6 6 6 6 6 6 5 4 4 4 3 3 3 3 3 4 4 4 4 4 4 4 4 3 3 3 3 3 3 2 2 2 1 1 1 1 2 2 2 2
5 5 5 6 6 6 6 6 5 5 4 3 3 3 2 2 3 3 4 4 4 4 3 4 4 4 4 4 4 4 3 3 3 3 3 2 2 2 1 2 2 1 2
5 5 5 5 6 6 5 5 4 4 4 4 3 3 3 3 3 3 4 4 4 4 4 4 4 4 4 4 4 3 3 2 2 3 3 3 3 3 3 2 2 2 3
4 6 5 5 5 5 5 4 4 3 4 4 4 4 4 3 2 2 3 3 4 5 4 4 3 3 3 4 4 4 3 3 2 2 2 3 3 4 3 3 3 3 3
4 5 5 4 5 5 5 5 4 5 4 5 5 4 3 3 2 3 3 3 3 3 3 4 4 3 3 5 6 5 4 3 3 2 2 2 2 4 4 4 5 5 5
4 5 5 5 6 6 6 6 6 5 4 4 4 4 4 3 3 3 2 2 3 3 3 3 4 3 4 5 6 6 4 4 4 3 3 2 1 2 2 3 3 4 5
3 4 4 4 4 4 4 4 4 4 5 4 4 4 4 3 3 3 3 3 2 3 3 3 4 3 3 5 6 6 4 3 3 4 4 4 3 3 3 3 2 2 3
3 3 4 3 2 3 3 3 3 3 4 4 5 4 4 3 3 3 3 3 3 3 3 3 4 3 3 4 5 6 4 3 3 3 3 4 4 5 5 4 3 2 3
2 2 2 2 2 2 3 4 2 2 3 4 4 4 4 4 4 4 3 2 2 3 3 2 3 3 3 3 4 5 3 3 3 2 3 4 4 5 5 5 5 4 4
1 2 3 2 2 2 3 3 2 3 4 3 3 3 3 4 4 3 2 2 2 2 2 2 1 2 2 3 3 4 4 4 3 3 3 3 5 5 5 5 5 6 4
2 3 3 1 1 2 4 3 3 3 2 3 3 3 3 3 3 2 2 2 2 2 2 1 1 1 2 2 2 3 4 4 4 4 3 4 5 5 5 4 4 5 4
2 2 3 2 0 1 3 4 4 2 3 3 3 3 3 2 3 3 3 2 2 2 2 2 2 2 2 2 3 3 3 4 3 3 4 4 4 3 3 4 5 4 3
2 2 3 2 1 1 2 3 3 2 3 3 3 3 3 2 2 2 2 3 3 2 2 2 2 2 1 2 2 1 2 2 3 2 3 3 3 2 3 2 3 3 3
2 3 3 3 2 2 2 2 2 3 3 3 3 3 3 3 2 2 2 3 4 4 4 4 4 3 3 4 4 2 2 2 2 1 0 1 1 1 2 2 2 2 3
2 2 3 3 3 2 2 3 3 3 4 3 3 3 3 3 3 2 1 2 3 4 5 5 4 4 4 3 3 4 4 4 3 2 2 3 3 4 4 4 3 3 4
Wind_Direction
200 167 160 154 145 143 134 137 132 137 123 111 108 101 91 55 40 65 82 91 102 105 105 105 101 97 95 98 100 98 83 75 93 82 50 28 32 43 44 51 60 61 71
172 162 158 153 151 151 149 147 149 152 148 147 152 153 150 128 94 50 68 82 96 110 117 117 112 107 104 96 95 102 101 92 92 109 93 36 10 13 27 33 56 54 68
179 173 162 160 154 154 160 159 160 157 155 145 119 96 73 53 43 31 18 25 91 112 121 127 124 120 121 134 137 133 132 152 284 128 136 138 195 330 353 10 27 36 56
172 171 164 161 163 168 162 156 162 159 158 146 138 138 138 151 205 211 230 313 93 116 130 138 139 137 136 142 160 142 145 143 174 327 98 151 154 149 352 345 2 20 43
170 173 172 169 167 165 161 162 160 159 159 154 153 149 151 178 186 172 170 237 1 104 126 142 142 143 146 146 145 132 132 144 157 163 113 87 83 117 142 235 328 360 3
169 171 170 162 159 157 156 157 158 165 165 160 156 157 162 167 160 172 183 214 263 317 120 145 139 145 151 159 161 149 147 148 139 138 134 144 149 159 148 171 213 286 324
166 166 163 166 166 164 164 159 158 168 176 170 171 172 173 175 181 190 192 192 198 227 223 161 155 157 161 160 152 137 160 160 150 157 153 145 156 154 146 142 162 204 305
174 175 176 177 177 176 172 167 172 180 182 179 184 188 182 180 191 193 186 193 202 210 198 170 164 166 163 151 139 126 161 149 160 156 143 133 142 137 145 151 146 119 357
181 181 179 179 180 181 182 180 179 184 188 188 184 190 195 189 194 197 191 200 207 203 182 171 167 168 165 160 148 149 175 157 162 162 151 146 159 155 153 152 153 151 170
185 182 179 183 185 185 184 182 182 188 192 194 197 196 202 197 195 187 195 199 198 191 175 174 170 172 170 162 151 154 166 147 168 163 144 141 156 148 152 157 155 146 156
188 185 185 186 181 176 176 180 185 190 195 198 198 194 203 199 195 199 200 198 199 193 185 179 174 176 180 169 155 169 166 165 192 181 166 187 162 149 150 141 141 145 138
185 185 184 179 176 179 179 182 186 192 201 198 186 188 199 193 194 205 206 196 195 196 191 182 177 185 190 181 171 185 186 181 190 198 170 194 162 157 156 148 148 152 147
173 172 173 181 185 187 187 188 189 195 195 178 170 175 184 189 202 210 203 192 192 194 187 179 183 191 195 193 192 187 190 194 197 193 187 200 170 181 177 158 155 160 138
172 176 184 185 183 183 186 190 196 191 179 166 166 181 196 201 206 203 192 186 181 181 186 192 196 195 194 191 186 179 182 191 200 196 192 190 181 188 182 170 168 148 127
168 178 188 191 186 182 183 186 195 196 182 170 179 203 208 201 191 189 193 186 185 189 189 188 196 195 191 197 187 181 178 177 188 200 202 199 193 189 185 177 173 156 148
182 184 181 182 190 192 191 187 192 205 191 186 192 197 191 184 190 193 198 187 189 195 192 193 190 193 212 209 191 174 170 173 177 194 219 219 208 210 202 192 183 175 170
195 191 193 197 200 199 195 197 202 193 182 187 192 191 185 177 194 196 183 196 196 190 193 196 185 194 218 205 191 182 169 176 188 193 201 223 221 191 187 195 195 206 200
201 207 210 212 211 202 196 195 189 185 186 189 199 196 182 184 188 179 183 196 190 193 195 193 190 191 212 201 193 183 170 177 195 199 196 197 213 213 187 178 189 229 239
188 198 196 192 181 185 186 161 177 182 185 199 203 196 185 183 184 191 202 202 188 196 194 189 187 193 221 214 198 179 169 185 212 217 208 199 211 222 195 174 192 232 267
175 162 142 125 140 169 141 125 155 163 197 207 198 183 178 178 182 195 202 200 190 197 189 176 189 197 217 223 201 176 166 187 216 231 232 220 217 218 200 183 186 208 237
154 136 124 133 169 163 136 138 161 206 216 195 168 159 168 173 173 177 172 171 172 166 165 167 199 207 219 222 207 185 175 190 202 219 237 240 227 220 211 198 197 209 200
121 123 126 141 178 155 148 155 200 225 189 152 147 157 164 169 166 158 162 155 154 161 175 172 233 260 250 231 227 204 196 193 196 222 230 235 229 221 212 206 205 191 170
143 133 140 143 152 173 159 177 219 208 160 147 158 168 165 166 160 160 164 161 155 168 201 203 235 262 263 259 244 218 209 208 212 231 231 229 224 221 219 213 200 186 180
165 151 135 142 223 239 188 195 202 169 150 161 177 176 173 179 176 176 177 176 182 193 207 211 234 255 267 261 261 257 238 235 239 244 242 236 231 230 224 218 214 205 200
190 170 169 186 216 227 207 204 189 156 156 175 192 192 189 186 189 195 197 198 209 208 206 214 211 211 238 250 234 204 223 231 235 213 224 245 232 222 229 233 224 214 207
188 184 194 205 220 214 210 213 199 169 166 179 197 199 197 194 191 191 224 242 229 238 231 222 212 225 236 255 235 225 226 219 188 150 206 227 228 227 224 227 232 225 222
Height
1542 1543 1544 1545 1546 1547 1548 1548 1548 1549 1549 1549 1549 1549 1549 1549 1549 1549 1549 1549 1549 1549 1549 1549 1549 1549 1549 1549 1550 1549 1549 1550 1550 1550 1550 1550 1550 1550 1550 1549 1548 1548 1547
1541 1542 1543 1544 1545 1546 1547 1548 1548 1548 1549 1549 1549 1549 1549 1549 1549 1549 1549 1549 1549 1549 1549 1549 1549 1549 1549 1550 1550 1550 1550 1550 1550 1550 1550 1550 1552 1551 1550 1550 1549 1548 1548
1538 1540 1542 1543 1544 1545 1546 1547 1547 1548 1548 1548 1549 1549 1549 1549 1549 1549 1549 1549 1549 1549 1549 1549 1549 1549 1549 1550 1550 1550 1550 1550 1550 1550 1551 1550 1550 1551 1551 1550 1549 1549 1548
1536 1538 1540 1542 1543 1544 1545 1546 1547 1547 1548 1548 1548 1548 1548 1548 1549 1549 1549 1549 1549 1548 1548 1549 1549 1549 1549 1549 1549 1550 1550 1550 1550 1550 1550 1551 1550 1550 1550 1551 1550 1549 1548
1534 1536 1538 1540 1542 1543 1544 1545 1546 1546 1547 1547 1547 1547 1548 1548 1548 1548 1548 1548 1548 1548 1548 1548 1548 1548 1549 1549 1549 1549 1549 1549 1550 1549 1549 1549 1549 1549 1549 1549 1549 1549 1548
1533 1535 1537 1539 1541 1542 1543 1544 1545 1545 1546 1546 1546 1546 1547 1547 1547 1547 1547 1547 1548 1548 1548 1548 1548 1548 1548 1548 1548 1549 1549 1549 1549 1549 1549 1549 1549 1548 1548 1548 1548 1548 1548
1532 1534 1536 1538 1539 1540 1541 1542 1543 1544 1544 1545 1545 1545 1546 1546 1546 1546 1546 1546 1546 1547 1547 1547 1547 1547 1548 1548 1548 1548 1548 1548 1548 1548 1548 1548 1548 1548 1548 1548 1547 1547 1547
1530 1532 1533 1535 1537 1539 1540 1541 1542 1542 1543 1543 1544 1544 1544 1544 1545 1545 1545 1545 1545 1546 1546 1546 1546 1547 1547 1547 1547 1547 1547 1547 1547 1547 1547 1547 1547 1547 1547 1547 1547 1547 1547
1528 1530 1532 1534 1535 1537 1538 1539 1540 1541 1541 1542 1542 1542 1542 1543 1543 1543 1544 1544 1544 1544 1545 1545 1545 1546 1546 1546 1546 1546 1546 1546 1546 1546 1546 1546 1546 1546 1546 1546 1546 1547 1545
1526 1528 1530 1532 1534 1535 1536 1537 1538 1539 1540 1540 1540 1540 1540 1541 1541 1541 1541 1542 1542 1543 1543 1543 1544 1544 1544 1545 1545 1545 1545 1545 1545 1545 1545 1545 1545 1545 1545 1545 1545 1545 1545
1524 1526 1528 1530 1532 1533 1534 1535 1536 1537 1538 1538 1538 1539 1539 1539 1539 1539 1539 1540 1540 1541 1541 1542 1542 1542 1542 1543 1543 1543 1543 1543 1543 1543 1543 1543 1543 1543 1543 1543 1543 1543 1543
1523 1525 1526 1528 1530 1531 1532 1533 1534 1535 1535 1536 1536 1537 1537 1537 1537 1537 1537 1538 1538 1538 1539 1540 1540 1540 1540 1541 1541 1541 1542 1542 1542 1542 1542 1542 1542 1541 1541 1541 1541 1541 1541
1522 1523 1525 1526 1527 1529 1530 1531 1532 1533 1533 1534 1534 1535 1535 1535 1535 1535 1535 1535 1536 1536 1537 1538 1538 1538 1539 1539 1539 1540 1540 1540 1540 1540 1540 1540 1540 1540 1540 1539 1539 1539 1539
1520 1522 1523 1524 1525 1526 1528 1528 1529 1530 1531 1531 1532 1532 1532 1533 1533 1533 1533 1533 1533 1534 1535 1535 1536 1536 1537 1537 1537 1538 1538 1538 1538 1538 1538 1538 1538 1538 1537 1537 1537 1537 1537
1519 1520 1521 1521 1522 1523 1525 1526 1527 1527 1528 1529 1529 1530 1530 1531 1531 1531 1531 1531 1531 1532 1532 1533 1533 1534 1534 1535 1535 1535 1535 1535 1535 1535 1536 1535 1536 1535 1535 1535 1535 1535 1534
1517 1517 1518 1519 1520 1520 1521 1522 1523 1524 1525 1526 1526 1527 1527 1528 1528 1528 1528 1528 1529 1529 1530 1530 1530 1531 1532 1532 1532 1533 1533 1533 1533 1533 1533 1533 1533 1533 1533 1532 1532 1533 1532
1515 1515 1516 1516 1517 1517 1518 1519 1520 1521 1522 1522 1523 1523 1524 1525 1525 1525 1526 1526 1526 1526 1527 1527 1527 1528 1529 1529 1530 1530 1530 1530 1530 1530 1530 1530 1530 1530 1530 1529 1529 1529 1529
1513 1513 1513 1514 1514 1515 1515 1516 1517 1517 1518 1519 1519 1520 1521 1522 1522 1522 1523 1523 1523 1524 1524 1524 1525 1525 1526 1526 1527 1527 1527 1527 1527 1527 1527 1527 1527 1527 1527 1526 1526 1526 1526
1511 1511 1511 1511 1511 1512 1512 1513 1513 1514 1514 1515 1516 1517 1518 1519 1519 1519 1520 1520 1521 1521 1521 1521 1522 1522 1523 1523 1523 1524 1524 1524 1524 1524 1524 1524 1523 1523 1523 1523 1522 1522 1522
1509 1509 1508 1508 1508 1509 1509 1509 1509 1510 1510 1511 1512 1513 1514 1515 1516 1516 1517 1518 1518 1518 1518 1518 1519 1519 1520 1520 1521 1521 1521 1520 1520 1520 1520 1520 1520 1520 1519 1519 1519 1518 1518
1506 1506 1506 1506 1505 1506 1506 1506 1506 1507 1507 1508 1509 1510 1511 1512 1513 1513 1514 1514 1515 1515 1515 1515 1516 1516 1517 1517 1517 1517 1517 1517 1517 1516 1516 1516 1516 1516 1515 1515 1515 1515 1514
1504 1504 1503 1503 1503 1503 1503 1503 1503 1504 1505 1505 1506 1507 1508 1509 1509 1510 1511 1511 1512 1512 1512 1512 1513 1513 1513 1513 1513 1514 1514 1513 1513 1512 1512 1512 1512 1512 1511 1511 1511 1511 1511
1502 1502 1501 1501 1501 1500 1500 1500 1500 1501 1502 1502 1503 1504 1505 1506 1506 1507 1507 1508 1508 1509 1509 1509 1509 1509 1510 1510 1510 1510 1510 1509 1509 1508 1508 1508 1508 1508 1507 1507 1507 1507 1506
1500 1499 1499 1498 1498 1498 1498 1498 1498 1499 1499 1499 1500 1501 1502 1502 1503 1504 1504 1504 1505 1505 1505 1505 1505 1505 1505 1505 1506 1505 1505 1505 1505 1504 1504 1504 1504 1504 1503 1503 1503 1502 1502
1497 1497 1496 1496 1495 1495 1495 1495 1496 1496 1496 1497 1498 1498 1499 1499 1499 1500 1500 1500 1501 1501 1502 1502 1502 1502 1501 1502 1502 1502 1501 1501 1501 1500 1499 1499 1499 1499 1498 1498 1498 1498 1498
1495 1494 1494 1493 1493 1492 1492 1492 1493 1493 1493 1494 1494 1495 1495 1495 1496 1496 1496 1496 1497 1497 1498 1498 1498 1498 1498 1498 1498 1498 1498 1497 1497 1496 1495 1494 1494 1494 1494 1493 1493 1493 1493